AMC-10 (GE-10) (28154 NORAD) Tracking and Keplerian Element Data

This shows tracking and keplerian element data for the satellite.

Feedback or suggestion? Click here.




ElementValue
Catalog28154
NameAMC-10 (GE-10)
Epoch Orbit5515
Epoch Day59.79699604
Epoch Year2019
RAAN33.9181
Inclination0.1895
Eccentricity0.0003261
Argument of Perigee317.5152
Mean Anonmoly264.3213
Mean Motion0.99124843
Decay Rate-2.27E-06
L11 28154U 04003A 19059.79699604 -.00000227 00000-0 00000-0 0 9993
L22 28154 0.1895 33.9181 0003261 317.5152 264.3213 0.99124843 55153



Live tracking and technical data element details for AMC-10 (GE-10) (NORAD 28154). AMC-10 (GE-10) can be tracked NOW for your location showing map with azimuth and elevation plus other details from your city location.







IsCatalogInMostPopularTable: catalog: 28154, numindb: 327
Update: records affected: 1



GetName: 28154 AMC-10 (GE-10)

Hit Count: updated at: Sat, 14 Mar 2026 03:14:54 GMT